Time,TemperatureF,DewpointF,PressureIn,WindDirection,WindDirectionDegrees,WindSpeedMPH,WindSpeedGustMPH,Humidity,HourlyPrecipIn,Conditions,Clouds,dailyrainin,SoftwareType,DateUTC
2013-01-30 00:00:00,70.1,66.4,30.11,SE,142,1.0,8.0,88,0.00,,SKC,0.00,VWS V14.01,2013-01-30 05:00:00,
2013-01-30 00:01:00,70.1,66.4,30.11,SSE,158,4.0,9.0,88,0.00,,SKC,0.00,VWS V14.01,2013-01-30 05:01:00,
2013-01-30 00:06:00,70.1,66.1,30.11,SE,138,2.0,6.0,87,0.00,,SKC,0.00,VWS V14.01,2013-01-30 05:06:00,
2013-01-30 00:11:00,70.1,66.1,30.11,SE,144,3.0,5.0,87,0.00,,SKC,0.00,VWS V14.01,2013-01-30 05:11:00,
2013-01-30 00:16:00,70.0,66.0,30.11,SE,134,5.0,10.0,87,0.00,,SKC,0.00,VWS V14.01,2013-01-30 05:16:00,
2013-01-30 00:21:00,70.0,66.0,30.11,SE,141,1.0,6.0,87,0.00,,SKC,0.00,VWS V14.01,2013-01-30 05:21:00,
2013-01-30 00:24:00,69.9,65.9,30.11,SSE,148,4.0,9.0,87,0.00,,SKC,0.00,VWS V14.01,2013-01-30 05:24:00,
2013-01-30 00:29:00,69.8,65.8,30.11,SSE,164,3.0,8.0,87,0.00,,SKC,0.00,VWS V14.01,2013-01-30 05:29:00,
2013-01-30 00:34:00,69.6,65.6,30.10,South,169,3.0,8.0,87,0.00,,SKC,0.00,VWS V14.01,2013-01-30 05:34:00,
2013-01-30 00:39:00,69.4,65.4,30.10,SE,142,4.0,7.0,87,0.00,,SKC,0.00,VWS V14.01,2013-01-30 05:39:00,
2013-01-30 00:44:00,69.2,65.5,30.10,SSE,150,3.0,11.0,88,0.00,,SKC,0.00,VWS V14.01,2013-01-30 05:44:00,
2013-01-30 00:49:00,69.1,65.4,30.10,SE,143,7.0,8.0,88,0.00,,SKC,0.00,VWS V14.01,2013-01-30 05:49:00,
2013-01-30 00:54:00,68.9,65.2,30.10,SSE,159,3.0,8.0,88,0.00,,SKC,0.00,VWS V14.01,2013-01-30 05:54:00,
2013-01-30 00:59:00,68.8,65.1,30.10,SE,130,5.0,10.0,88,0.00,,SKC,0.00,VWS V14.01,2013-01-30 05:59:00,
2013-01-30 01:04:00,68.6,64.9,30.10,SE,144,6.0,9.0,88,0.00,,SKC,0.00,VWS V14.01,2013-01-30 06:04:00,
2013-01-30 01:09:00,68.4,65.0,30.10,SE,130,6.0,9.0,89,0.00,,SKC,0.00,VWS V14.01,2013-01-30 06:09:00,
2013-01-30 01:14:00,68.3,64.9,30.10,SE,125,4.0,7.0,89,0.00,,SKC,0.00,VWS V14.01,2013-01-30 06:14:00,
2013-01-30 01:19:00,68.1,64.7,30.10,SE,142,2.0,8.0,89,0.00,,SKC,0.00,VWS V14.01,2013-01-30 06:19:00,
2013-01-30 01:24:00,68.0,64.6,30.09,SE,129,6.0,7.0,89,0.00,,SKC,0.00,VWS V14.01,2013-01-30 06:24:00,
2013-01-30 01:29:00,67.9,64.5,30.09,SSE,148,4.0,9.0,89,0.00,,SKC,0.00,VWS V14.01,2013-01-30 06:29:00,
2013-01-30 01:34:00,67.7,64.7,30.09,SE,132,7.0,9.0,90,0.00,,SKC,0.00,VWS V14.01,2013-01-30 06:34:00,
2013-01-30 01:39:00,67.6,64.6,30.09,SSE,148,3.0,11.0,90,0.00,,SKC,0.00,VWS V14.01,2013-01-30 06:39:00,
2013-01-30 01:44:00,67.4,64.4,30.09,SE,135,5.0,8.0,90,0.00,,SKC,0.00,VWS V14.01,2013-01-30 06:44:00,
2013-01-30 01:49:00,67.3,64.3,30.09,ESE,116,2.0,8.0,90,0.00,,SKC,0.00,VWS V14.01,2013-01-30 06:49:00,
2013-01-30 01:54:00,67.2,64.5,30.09,SE,132,6.0,9.0,91,0.00,,SKC,0.00,VWS V14.01,2013-01-30 06:54:00,
2013-01-30 01:59:00,67.0,64.3,30.09,SE,140,1.0,8.0,91,0.00,,SKC,0.00,VWS V14.01,2013-01-30 06:59:00,
2013-01-30 02:04:00,66.9,64.2,30.09,SE,137,5.0,7.0,91,0.00,,SKC,0.00,VWS V14.01,2013-01-30 07:04:00,
2013-01-30 02:09:00,66.8,64.1,30.09,SSE,156,6.0,7.0,91,0.00,,SKC,0.00,VWS V14.01,2013-01-30 07:09:00,
2013-01-30 02:14:00,66.7,64.0,30.09,SSE,157,2.0,5.0,91,0.00,,SKC,0.00,VWS V14.01,2013-01-30 07:14:00,
2013-01-30 02:19:00,66.7,64.0,30.09,SE,138,3.0,5.0,91,0.00,,SKC,0.00,VWS V14.01,2013-01-30 07:19:00,
2013-01-30 02:24:00,66.6,63.9,30.09,SSE,153,3.0,6.0,91,0.00,,SKC,0.00,VWS V14.01,2013-01-30 07:24:00,
2013-01-30 02:29:00,66.5,64.1,30.08,SE,126,3.0,6.0,92,0.00,,SKC,0.00,VWS V14.01,2013-01-30 07:29:00,
2013-01-30 02:34:00,66.4,64.0,30.08,SE,145,2.0,7.0,92,0.00,,SKC,0.00,VWS V14.01,2013-01-30 07:34:00,
2013-01-30 02:39:00,66.3,63.9,30.08,ESE,113,4.0,4.0,92,0.00,,SKC,0.00,VWS V14.01,2013-01-30 07:39:00,
2013-01-30 02:44:00,66.3,63.9,30.08,ESE,113,3.0,5.0,92,0.00,,SKC,0.00,VWS V14.01,2013-01-30 07:44:00,
2013-01-30 02:49:00,66.2,63.8,30.08,SSE,149,3.0,5.0,92,0.00,,SKC,0.00,VWS V14.01,2013-01-30 07:49:00,
2013-01-30 02:54:00,66.2,63.8,30.08,SE,138,7.0,7.0,92,0.00,,SKC,0.00,VWS V14.01,2013-01-30 07:54:00,
2013-01-30 02:59:00,66.1,63.7,30.08,SE,145,1.0,5.0,92,0.00,,SKC,0.00,VWS V14.01,2013-01-30 07:59:00,
2013-01-30 03:04:00,66.1,63.7,30.08,SSE,150,5.0,5.0,92,0.00,,SKC,0.00,VWS V14.01,2013-01-30 08:04:00,
2013-01-30 03:09:00,66.1,63.7,30.08,SSE,157,3.0,5.0,92,0.00,,SKC,0.00,VWS V14.01,2013-01-30 08:09:00,
2013-01-30 03:14:00,66.1,63.7,30.07,SSE,152,3.0,5.0,92,0.00,,SKC,0.00,VWS V14.01,2013-01-30 08:14:00,
2013-01-30 03:19:00,66.0,63.6,30.07,SE,128,4.0,5.0,92,0.00,,SKC,0.00,VWS V14.01,2013-01-30 08:19:00,
2013-01-30 03:24:00,65.9,63.5,30.07,SSE,156,2.0,6.0,92,0.00,,SKC,0.00,VWS V14.01,2013-01-30 08:24:00,
2013-01-30 03:29:00,65.9,63.8,30.07,SE,134,6.0,6.0,93,0.00,,SKC,0.00,VWS V14.01,2013-01-30 08:29:00,
2013-01-30 03:34:00,65.8,63.7,30.06,SSE,150,3.0,7.0,93,0.00,,SKC,0.00,VWS V14.01,2013-01-30 08:34:00,
2013-01-30 03:39:00,65.8,63.7,30.06,ESE,123,3.0,8.0,93,0.00,,SKC,0.00,VWS V14.01,2013-01-30 08:39:00,
2013-01-30 03:44:00,65.7,63.6,30.06,SE,130,2.0,6.0,93,0.00,,SKC,0.00,VWS V14.01,2013-01-30 08:44:00,
2013-01-30 03:49:00,65.7,63.6,30.06,SSE,150,4.0,5.0,93,0.00,,SKC,0.00,VWS V14.01,2013-01-30 08:49:00,
2013-01-30 03:54:00,65.7,63.6,30.06,SSE,165,2.0,5.0,93,0.00,,SKC,0.00,VWS V14.01,2013-01-30 08:54:00,
2013-01-30 03:59:00,65.6,63.5,30.06,SE,140,2.0,6.0,93,0.00,,SKC,0.00,VWS V14.01,2013-01-30 08:59:00,
2013-01-30 04:04:00,65.6,63.5,30.06,SE,134,1.0,6.0,93,0.00,,SKC,0.00,VWS V14.01,2013-01-30 09:04:00,
2013-01-30 04:09:00,65.6,63.5,30.06,SSE,147,2.0,5.0,93,0.00,,SKC,0.00,VWS V14.01,2013-01-30 09:09:00,
2013-01-30 04:14:00,65.6,63.5,30.06,SSE,165,3.0,6.0,93,0.00,,SKC,0.00,VWS V14.01,2013-01-30 09:14:00,
2013-01-30 04:19:00,65.6,63.5,30.06,SSE,159,1.0,5.0,93,0.00,,SKC,0.00,VWS V14.01,2013-01-30 09:19:00,
2013-01-30 04:24:00,65.6,63.8,30.06,South,177,1.0,5.0,94,0.00,,SKC,0.00,VWS V14.01,2013-01-30 09:24:00,
2013-01-30 04:29:00,65.6,63.8,30.06,South,169,3.0,6.0,94,0.00,,SKC,0.00,VWS V14.01,2013-01-30 09:29:00,
2013-01-30 04:34:00,65.5,63.7,30.06,SE,130,5.0,8.0,94,0.00,,SKC,0.00,VWS V14.01,2013-01-30 09:34:00,
2013-01-30 04:39:00,65.6,63.8,30.05,SE,129,5.0,8.0,94,0.00,,SKC,0.00,VWS V14.01,2013-01-30 09:39:00,
2013-01-30 04:44:00,65.5,63.7,30.05,SSE,166,4.0,7.0,94,0.00,,SKC,0.00,VWS V14.01,2013-01-30 09:44:00,
2013-01-30 04:49:00,65.5,63.7,30.06,SSE,151,4.0,7.0,94,0.00,,SKC,0.00,VWS V14.01,2013-01-30 09:49:00,
2013-01-30 04:54:00,65.5,63.7,30.06,SSE,148,5.0,6.0,94,0.00,,SKC,0.00,VWS V14.01,2013-01-30 09:54:00,
2013-01-30 04:59:00,65.4,63.6,30.06,SSE,159,3.0,5.0,94,0.00,,SKC,0.00,VWS V14.01,2013-01-30 09:59:00,
2013-01-30 05:04:00,65.4,63.6,30.06,SSE,157,3.0,6.0,94,0.00,,SKC,0.00,VWS V14.01,2013-01-30 10:04:00,
2013-01-30 05:09:00,65.4,63.6,30.05,ESE,123,1.0,7.0,94,0.00,,SKC,0.00,VWS V14.01,2013-01-30 10:09:00,
2013-01-30 05:14:00,65.4,63.6,30.05,South,178,3.0,6.0,94,0.00,,SKC,0.00,VWS V14.01,2013-01-30 10:14:00,
2013-01-30 05:19:00,65.3,63.5,30.05,SE,144,5.0,6.0,94,0.00,,SKC,0.00,VWS V14.01,2013-01-30 10:19:00,
2013-01-30 05:24:00,65.3,63.5,30.05,SSE,148,3.0,6.0,94,0.00,,SKC,0.00,VWS V14.01,2013-01-30 10:24:00,
2013-01-30 05:29:00,65.2,63.4,30.05,SE,134,4.0,6.0,94,0.00,,SKC,0.00,VWS V14.01,2013-01-30 10:29:00,
2013-01-30 05:34:00,65.2,63.4,30.05,South,180,2.0,8.0,94,0.00,,SKC,0.00,VWS V14.01,2013-01-30 10:34:00,
2013-01-30 05:39:00,65.2,63.4,30.05,SSE,166,2.0,6.0,94,0.00,,SKC,0.00,VWS V14.01,2013-01-30 10:39:00,
2013-01-30 05:44:00,65.2,63.7,30.05,SE,137,2.0,5.0,95,0.00,,SKC,0.00,VWS V14.01,2013-01-30 10:44:00,
2013-01-30 05:49:00,65.1,63.6,30.05,SE,146,6.0,6.0,95,0.00,,SKC,0.00,VWS V14.01,2013-01-30 10:49:00,
2013-01-30 05:54:00,65.0,63.5,30.05,SSE,153,3.0,7.0,95,0.00,,SKC,0.00,VWS V14.01,2013-01-30 10:54:00,
2013-01-30 05:59:00,65.0,63.5,30.05,SE,146,3.0,7.0,95,0.00,,SKC,0.00,VWS V14.01,2013-01-30 10:59:00,
2013-01-30 06:04:00,64.9,63.4,30.05,SSE,153,5.0,6.0,95,0.00,,SKC,0.00,VWS V14.01,2013-01-30 11:04:00,
2013-01-30 06:09:00,64.9,63.4,30.05,SE,144,2.0,6.0,95,0.00,,SKC,0.00,VWS V14.01,2013-01-30 11:09:00,
2013-01-30 06:14:00,64.8,63.3,30.05,SE,127,4.0,7.0,95,0.00,,SKC,0.00,VWS V14.01,2013-01-30 11:14:00,
2013-01-30 06:19:00,64.8,63.3,30.05,SE,139,1.0,7.0,95,0.00,,SKC,0.00,VWS V14.01,2013-01-30 11:19:00,
2013-01-30 06:24:00,64.8,63.3,30.05,SE,136,7.0,10.0,95,0.00,,SKC,0.00,VWS V14.01,2013-01-30 11:24:00,
2013-01-30 06:29:00,64.8,63.3,30.05,SSE,147,4.0,8.0,95,0.00,,SKC,0.00,VWS V14.01,2013-01-30 11:29:00,
2013-01-30 06:34:00,64.7,63.2,30.05,SE,140,5.0,8.0,95,0.00,,SKC,0.00,VWS V14.01,2013-01-30 11:34:00,
2013-01-30 06:39:00,64.7,63.2,30.05,SE,146,2.0,6.0,95,0.00,,SKC,0.00,VWS V14.01,2013-01-30 11:39:00,
2013-01-30 06:44:00,64.7,63.2,30.05,ESE,119,3.0,7.0,95,0.00,,SKC,0.00,VWS V14.01,2013-01-30 11:44:00,
2013-01-30 06:49:00,64.7,63.2,30.05,SE,131,4.0,9.0,95,0.00,,SKC,0.00,VWS V14.01,2013-01-30 11:49:00,
2013-01-30 06:54:00,64.7,63.2,30.05,SE,142,6.0,7.0,95,0.00,,SKC,0.00,VWS V14.01,2013-01-30 11:54:00,
2013-01-30 06:59:00,64.7,63.2,30.05,SE,126,4.0,10.0,95,0.00,,SKC,0.00,VWS V14.01,2013-01-30 11:59:00,
2013-01-30 07:04:00,64.7,63.2,30.05,SE,143,3.0,8.0,95,0.00,,SKC,0.00,VWS V14.01,2013-01-30 12:04:00,
2013-01-30 07:09:00,64.7,63.2,30.05,SE,138,3.0,7.0,95,0.00,,SKC,0.00,VWS V14.01,2013-01-30 12:09:00,
2013-01-30 07:14:00,64.7,63.2,30.05,SSE,161,3.0,8.0,95,0.00,,SKC,0.00,VWS V14.01,2013-01-30 12:14:00,
2013-01-30 07:19:00,64.8,63.3,30.05,SE,138,3.0,8.0,95,0.00,,SKC,0.00,VWS V14.01,2013-01-30 12:19:00,
2013-01-30 07:24:00,64.9,63.4,30.05,SE,138,6.0,9.0,95,0.00,,SKC,0.00,VWS V14.01,2013-01-30 12:24:00,
2013-01-30 07:29:00,65.0,63.2,30.04,SE,125,4.0,7.0,94,0.00,,SKC,0.00,VWS V14.01,2013-01-30 12:29:00,
2013-01-30 07:34:00,65.2,63.4,30.04,SE,130,7.0,9.0,94,0.00,,SKC,0.00,VWS V14.01,2013-01-30 12:34:00,
2013-01-30 07:39:00,65.4,63.6,30.05,SE,126,4.0,8.0,94,0.00,,SKC,0.00,VWS V14.01,2013-01-30 12:39:00,
2013-01-30 07:44:00,65.5,63.4,30.05,SE,146,3.0,10.0,93,0.00,,SKC,0.00,VWS V14.01,2013-01-30 12:44:00,
2013-01-30 07:49:00,65.7,63.6,30.04,SE,132,7.0,8.0,93,0.00,,SKC,0.00,VWS V14.01,2013-01-30 12:49:00,
2013-01-30 07:54:00,65.9,63.8,30.04,SSE,157,4.0,8.0,93,0.00,,SKC,0.00,VWS V14.01,2013-01-30 12:54:00,
2013-01-30 07:59:00,66.2,63.8,30.04,SSE,165,5.0,7.0,92,0.00,,SKC,0.00,VWS V14.01,2013-01-30 12:59:00,
2013-01-30 08:04:00,66.4,64.0,30.04,SSE,154,2.0,9.0,92,0.00,,SKC,0.00,VWS V14.01,2013-01-30 13:04:00,
2013-01-30 08:09:00,66.6,64.2,30.05,South,169,2.0,7.0,92,0.00,,SKC,0.00,VWS V14.01,2013-01-30 13:09:00,
2013-01-30 08:14:00,66.8,64.1,30.05,South,176,6.0,8.0,91,0.00,,SKC,0.00,VWS V14.01,2013-01-30 13:14:00,
2013-01-30 08:19:00,67.1,64.4,30.05,SE,142,6.0,8.0,91,0.00,,SKC,0.00,VWS V14.01,2013-01-30 13:19:00,
2013-01-30 08:24:00,67.4,64.4,30.04,SE,146,4.0,12.0,90,0.00,,SKC,0.00,VWS V14.01,2013-01-30 13:24:00,
2013-01-30 08:29:00,67.6,64.6,30.04,SSE,163,7.0,12.0,90,0.00,,SKC,0.00,VWS V14.01,2013-01-30 13:29:00,
2013-01-30 08:34:00,67.9,64.9,30.04,South,189,8.0,10.0,90,0.00,,SKC,0.00,VWS V14.01,2013-01-30 13:34:00,
2013-01-30 08:39:00,68.2,64.8,30.04,SE,134,9.0,12.0,89,0.00,,SKC,0.00,VWS V14.01,2013-01-30 13:39:00,
2013-01-30 08:44:00,68.4,65.0,30.04,SSE,155,7.0,11.0,89,0.00,,SKC,0.00,VWS V14.01,2013-01-30 13:44:00,
2013-01-30 08:49:00,68.6,64.9,30.04,SSE,156,9.0,11.0,88,0.00,,SKC,0.00,VWS V14.01,2013-01-30 13:49:00,
2013-01-30 08:54:00,68.8,65.1,30.03,SSE,147,10.0,13.0,88,0.00,,SKC,0.00,VWS V14.01,2013-01-30 13:54:00,
2013-01-30 08:59:00,69.0,65.3,30.03,South,171,9.0,14.0,88,0.00,,SKC,0.00,VWS V14.01,2013-01-30 13:59:00,
2013-01-30 09:04:00,69.3,65.3,30.03,SSE,162,7.0,13.0,87,0.00,,SKC,0.00,VWS V14.01,2013-01-30 14:04:00,
2013-01-30 09:09:00,69.6,65.6,30.03,SSE,151,4.0,13.0,87,0.00,,SKC,0.00,VWS V14.01,2013-01-30 14:09:00,
2013-01-30 09:14:00,69.9,65.5,30.03,SE,143,14.0,17.0,86,0.00,,SKC,0.00,VWS V14.01,2013-01-30 14:14:00,
2013-01-30 09:19:00,70.0,66.0,30.03,ESE,109,12.0,14.0,87,0.00,,SKC,0.00,VWS V14.01,2013-01-30 14:19:00,
2013-01-30 09:24:00,70.2,65.8,30.03,SE,142,9.0,17.0,86,0.00,,SKC,0.00,VWS V14.01,2013-01-30 14:24:00,
2013-01-30 09:29:00,70.4,66.0,30.03,SE,130,8.0,14.0,86,0.00,,SKC,0.00,VWS V14.01,2013-01-30 14:29:00,
2013-01-30 09:34:00,70.6,65.9,30.03,SSE,160,11.0,19.0,85,0.00,,SKC,0.00,VWS V14.01,2013-01-30 14:34:00,
2013-01-30 09:39:00,70.8,66.1,30.03,SSE,165,11.0,19.0,85,0.00,,SKC,0.00,VWS V14.01,2013-01-30 14:39:00,
2013-01-30 09:44:00,70.9,65.8,30.03,South,172,14.0,20.0,84,0.00,,SKC,0.00,VWS V14.01,2013-01-30 14:44:00,
2013-01-30 09:49:00,71.2,65.8,30.02,SSE,158,13.0,19.0,83,0.00,,SKC,0.00,VWS V14.01,2013-01-30 14:49:00,
2013-01-30 09:54:00,71.5,66.1,30.03,SSE,155,7.0,14.0,83,0.00,,SKC,0.00,VWS V14.01,2013-01-30 14:54:00,
2013-01-30 09:59:00,71.7,66.3,30.03,SSW,196,7.0,14.0,83,0.00,,SKC,0.00,VWS V14.01,2013-01-30 14:59:00,
2013-01-30 10:04:00,72.0,66.2,30.03,SE,129,8.0,17.0,82,0.00,,SKC,0.00,VWS V14.01,2013-01-30 15:04:00,
2013-01-30 10:09:00,72.4,66.2,30.03,SSE,150,5.0,14.0,81,0.00,,SKC,0.00,VWS V14.01,2013-01-30 15:09:00,
2013-01-30 10:14:00,72.5,66.3,30.03,SSE,150,7.0,15.0,81,0.00,,SKC,0.00,VWS V14.01,2013-01-30 15:14:00,
2013-01-30 10:19:00,72.6,66.1,30.02,South,182,6.0,17.0,80,0.00,,SKC,0.00,VWS V14.01,2013-01-30 15:19:00,
2013-01-30 10:24:00,73.1,66.6,30.02,South,169,8.0,13.0,80,0.00,,SKC,0.00,VWS V14.01,2013-01-30 15:24:00,
2013-01-30 10:29:00,73.3,66.0,30.01,SE,138,11.0,20.0,78,0.00,,SKC,0.00,VWS V14.01,2013-01-30 15:29:00,
2013-01-30 10:34:00,73.8,65.8,30.01,SSE,167,6.0,19.0,76,0.00,,SKC,0.00,VWS V14.01,2013-01-30 15:34:00,
2013-01-30 10:39:00,74.2,65.8,30.01,South,173,12.0,17.0,75,0.00,,SKC,0.00,VWS V14.01,2013-01-30 15:39:00,
2013-01-30 10:44:00,74.4,66.0,30.01,SSE,165,12.0,26.0,75,0.00,,SKC,0.00,VWS V14.01,2013-01-30 15:44:00,
2013-01-30 10:49:00,74.7,65.9,30.00,SSE,155,11.0,21.0,74,0.00,,SKC,0.00,VWS V14.01,2013-01-30 15:49:00,
2013-01-30 10:54:00,74.7,65.5,30.00,ESE,107,10.0,18.0,73,0.00,,SKC,0.00,VWS V14.01,2013-01-30 15:54:00,
2013-01-30 10:59:00,74.8,65.6,30.00,South,186,12.0,19.0,73,0.00,,SKC,0.00,VWS V14.01,2013-01-30 15:59:00,
2013-01-30 11:04:00,75.0,65.8,30.00,SSE,157,9.0,19.0,73,0.00,,SKC,0.00,VWS V14.01,2013-01-30 16:04:00,
2013-01-30 11:09:00,75.3,65.7,30.00,South,178,10.0,21.0,72,0.00,,SKC,0.00,VWS V14.01,2013-01-30 16:09:00,
2013-01-30 11:14:00,75.5,65.4,30.00,SSE,159,9.0,20.0,71,0.00,,SKC,0.00,VWS V14.01,2013-01-30 16:14:00,
2013-01-30 11:19:00,75.9,65.4,30.00,SE,146,9.0,16.0,70,0.00,,SKC,0.00,VWS V14.01,2013-01-30 16:19:00,
2013-01-30 11:24:00,75.9,65.4,29.99,South,171,11.0,16.0,70,0.00,,SKC,0.00,VWS V14.01,2013-01-30 16:24:00,
2013-01-30 11:29:00,75.9,65.0,29.99,SSW,194,12.0,21.0,69,0.00,,SKC,0.00,VWS V14.01,2013-01-30 16:29:00,
2013-01-30 11:34:00,76.0,65.1,29.99,SSW,198,7.0,22.0,69,0.00,,SKC,0.00,VWS V14.01,2013-01-30 16:34:00,
2013-01-30 11:39:00,76.7,65.8,29.98,SSE,157,4.0,14.0,69,0.00,,SKC,0.00,VWS V14.01,2013-01-30 16:39:00,
2013-01-30 11:44:00,77.1,65.3,29.98,SSW,211,11.0,21.0,67,0.00,,SKC,0.00,VWS V14.01,2013-01-30 16:44:00,
2013-01-30 11:49:00,77.1,65.7,29.98,SE,128,13.0,16.0,68,0.00,,SKC,0.00,VWS V14.01,2013-01-30 16:49:00,
2013-01-30 11:54:00,77.2,65.4,29.98,South,173,11.0,19.0,67,0.00,,SKC,0.00,VWS V14.01,2013-01-30 16:54:00,
2013-01-30 11:59:00,77.1,64.9,29.98,SSW,207,12.0,19.0,66,0.00,,SKC,0.00,VWS V14.01,2013-01-30 16:59:00,
2013-01-30 12:04:00,77.5,65.3,29.98,SE,135,7.0,16.0,66,0.00,,SKC,0.00,VWS V14.01,2013-01-30 17:04:00,
2013-01-30 12:09:00,77.9,65.2,29.97,SSW,200,14.0,19.0,65,0.00,,SKC,0.00,VWS V14.01,2013-01-30 17:09:00,
2013-01-30 12:14:00,77.7,65.0,29.97,SSE,163,12.0,18.0,65,0.00,,SKC,0.00,VWS V14.01,2013-01-30 17:14:00,
2013-01-30 12:19:00,77.9,65.2,29.97,SSW,201,7.0,18.0,65,0.00,,SKC,0.00,VWS V14.01,2013-01-30 17:19:00,
2013-01-30 12:24:00,78.0,65.3,29.97,ESE,121,4.0,15.0,65,0.00,,SKC,0.00,VWS V14.01,2013-01-30 17:24:00,
2013-01-30 12:29:00,78.5,65.3,29.97,SE,129,7.0,20.0,64,0.00,,SKC,0.00,VWS V14.01,2013-01-30 17:29:00,
2013-01-30 12:34:00,78.8,65.6,29.98,South,178,5.0,12.0,64,0.00,,SKC,0.00,VWS V14.01,2013-01-30 17:34:00,
2013-01-30 12:39:00,78.9,65.2,29.98,SW,220,14.0,14.0,63,0.00,,SKC,0.00,VWS V14.01,2013-01-30 17:39:00,
2013-01-30 12:44:00,78.6,65.0,29.97,SSW,204,13.0,17.0,63,0.00,,SKC,0.00,VWS V14.01,2013-01-30 17:44:00,
2013-01-30 12:49:00,78.5,65.3,29.97,South,191,9.0,17.0,64,0.00,,SKC,0.00,VWS V14.01,2013-01-30 17:49:00,
2013-01-30 12:54:00,78.6,65.0,29.98,SSW,213,8.0,18.0,63,0.00,,SKC,0.00,VWS V14.01,2013-01-30 17:54:00,
2013-01-30 12:59:00,78.4,64.8,29.97,SW,214,7.0,17.0,63,0.00,,SKC,0.00,VWS V14.01,2013-01-30 17:59:00,
2013-01-30 13:04:00,78.7,65.1,29.97,SSW,197,9.0,15.0,63,0.00,,SKC,0.00,VWS V14.01,2013-01-30 18:04:00,
2013-01-30 13:09:00,79.1,65.4,29.96,SSE,167,5.0,13.0,63,0.00,,SKC,0.00,VWS V14.01,2013-01-30 18:09:00,
2013-01-30 13:14:00,79.6,65.4,29.95,SSE,159,8.0,16.0,62,0.00,,SKC,0.00,VWS V14.01,2013-01-30 18:14:00,
2013-01-30 13:19:00,79.8,65.6,29.94,SSE,157,12.0,17.0,62,0.00,,SKC,0.00,VWS V14.01,2013-01-30 18:19:00,
2013-01-30 13:24:00,79.8,65.6,29.94,SSW,200,11.0,15.0,62,0.00,,SKC,0.00,VWS V14.01,2013-01-30 18:24:00,
2013-01-30 13:29:00,79.5,64.9,29.95,SSW,203,13.0,23.0,61,0.00,,SKC,0.00,VWS V14.01,2013-01-30 18:29:00,
2013-01-30 13:34:00,79.8,65.2,29.94,SSW,213,11.0,14.0,61,0.00,,SKC,0.00,VWS V14.01,2013-01-30 18:34:00,
2013-01-30 13:39:00,80.6,65.4,29.94,SSE,150,11.0,17.0,60,0.00,,SKC,0.00,VWS V14.01,2013-01-30 18:39:00,
2013-01-30 13:44:00,80.6,65.0,29.94,South,186,9.0,17.0,59,0.00,,SKC,0.00,VWS V14.01,2013-01-30 18:44:00,
2013-01-30 13:49:00,80.7,65.1,29.94,South,179,5.0,17.0,59,0.00,,SKC,0.00,VWS V14.01,2013-01-30 18:49:00,
2013-01-30 13:54:00,80.4,65.3,29.94,South,178,7.0,15.0,60,0.00,,SKC,0.00,VWS V14.01,2013-01-30 18:54:00,
2013-01-30 13:59:00,80.5,65.3,29.94,SSW,203,9.0,19.0,60,0.00,,SKC,0.00,VWS V14.01,2013-01-30 18:59:00,
2013-01-30 14:04:00,80.8,65.2,29.94,SSW,205,6.0,16.0,59,0.00,,SKC,0.00,VWS V14.01,2013-01-30 19:04:00,
2013-01-30 14:09:00,80.7,64.6,29.94,South,186,12.0,20.0,58,0.00,,SKC,0.00,VWS V14.01,2013-01-30 19:09:00,
2013-01-30 14:14:00,80.6,64.5,29.94,SSW,209,10.0,16.0,58,0.00,,SKC,0.00,VWS V14.01,2013-01-30 19:14:00,
2013-01-30 14:19:00,80.6,65.0,29.94,SSW,207,12.0,17.0,59,0.00,,SKC,0.00,VWS V14.01,2013-01-30 19:19:00,
2013-01-30 14:24:00,80.9,64.8,29.93,South,184,10.0,21.0,58,0.00,,SKC,0.00,VWS V14.01,2013-01-30 19:24:00,
2013-01-30 14:29:00,81.1,64.9,29.93,SSE,163,6.0,17.0,58,0.00,,SKC,0.00,VWS V14.01,2013-01-30 19:29:00,
2013-01-30 14:34:00,81.1,64.4,29.93,South,175,10.0,15.0,57,0.00,,SKC,0.00,VWS V14.01,2013-01-30 19:34:00,
2013-01-30 14:39:00,81.1,64.4,29.93,South,189,5.0,15.0,57,0.00,,SKC,0.00,VWS V14.01,2013-01-30 19:39:00,
2013-01-30 14:44:00,81.4,65.2,29.93,SSW,196,12.0,17.0,58,0.00,,SKC,0.00,VWS V14.01,2013-01-30 19:44:00,
2013-01-30 14:49:00,81.7,65.0,29.92,South,187,6.0,18.0,57,0.00,,SKC,0.00,VWS V14.01,2013-01-30 19:49:00,
2013-01-30 14:54:00,81.3,64.6,29.92,SSW,213,7.0,16.0,57,0.00,,SKC,0.00,VWS V14.01,2013-01-30 19:54:00,
2013-01-30 14:59:00,81.3,64.6,29.92,SSW,201,7.0,15.0,57,0.00,,SKC,0.00,VWS V14.01,2013-01-30 19:59:00,
2013-01-30 15:04:00,81.9,65.2,29.92,SE,136,9.0,17.0,57,0.00,,SKC,0.00,VWS V14.01,2013-01-30 20:04:00,
2013-01-30 15:09:00,81.7,65.0,29.92,SW,227,8.0,18.0,57,0.00,,SKC,0.00,VWS V14.01,2013-01-30 20:09:00,
2013-01-30 15:14:00,81.6,64.9,29.92,SSW,194,9.0,17.0,57,0.00,,SKC,0.00,VWS V14.01,2013-01-30 20:14:00,
2013-01-30 15:19:00,81.6,64.4,29.92,South,183,12.0,17.0,56,0.00,,SKC,0.00,VWS V14.01,2013-01-30 20:19:00,
2013-01-30 15:24:00,81.5,64.3,29.92,South,191,13.0,18.0,56,0.00,,SKC,0.00,VWS V14.01,2013-01-30 20:24:00,
2013-01-30 15:29:00,81.6,64.4,29.92,SSW,201,15.0,16.0,56,0.00,,SKC,0.00,VWS V14.01,2013-01-30 20:29:00,
2013-01-30 15:34:00,81.9,64.2,29.92,SSW,194,14.0,17.0,55,0.00,,SKC,0.00,VWS V14.01,2013-01-30 20:34:00,
2013-01-30 15:39:00,81.6,64.4,29.92,SSW,212,12.0,19.0,56,0.00,,SKC,0.00,VWS V14.01,2013-01-30 20:39:00,
2013-01-30 15:44:00,81.6,64.4,29.92,SSW,209,9.0,15.0,56,0.00,,SKC,0.00,VWS V14.01,2013-01-30 20:44:00,
2013-01-30 15:49:00,81.9,64.7,29.91,SW,219,15.0,15.0,56,0.00,,SKC,0.00,VWS V14.01,2013-01-30 20:49:00,
2013-01-30 15:54:00,81.8,64.6,29.91,SSW,193,10.0,19.0,56,0.00,,SKC,0.00,VWS V14.01,2013-01-30 20:54:00,
2013-01-30 15:59:00,81.7,63.5,29.92,SW,223,9.0,20.0,54,0.00,,SKC,0.00,VWS V14.01,2013-01-30 20:59:00,
2013-01-30 16:04:00,81.5,63.8,29.91,SSW,207,9.0,18.0,55,0.00,,SKC,0.00,VWS V14.01,2013-01-30 21:04:00,
2013-01-30 16:09:00,81.3,64.1,29.91,SSW,212,11.0,18.0,56,0.00,,SKC,0.00,VWS V14.01,2013-01-30 21:09:00,
2013-01-30 16:14:00,81.3,64.6,29.91,SSW,200,11.0,14.0,57,0.00,,SKC,0.00,VWS V14.01,2013-01-30 21:14:00,
2013-01-30 16:19:00,81.3,65.1,29.92,SSW,211,13.0,19.0,58,0.00,,SKC,0.00,VWS V14.01,2013-01-30 21:19:00,
2013-01-30 16:24:00,81.3,65.1,29.92,SSW,192,7.0,16.0,58,0.00,,SKC,0.00,VWS V14.01,2013-01-30 21:24:00,
2013-01-30 16:29:00,81.5,65.3,29.92,SW,228,14.0,18.0,58,0.00,,SKC,0.00,VWS V14.01,2013-01-30 21:29:00,
2013-01-30 16:34:00,81.3,65.1,29.92,WSW,238,13.0,20.0,58,0.00,,SKC,0.00,VWS V14.01,2013-01-30 21:34:00,
2013-01-30 16:39:00,80.9,65.7,29.92,SW,214,9.0,21.0,60,0.00,,SKC,0.00,VWS V14.01,2013-01-30 21:39:00,
2013-01-30 16:44:00,80.8,65.6,29.91,WSW,239,22.0,22.0,60,0.00,,SKC,0.00,VWS V14.01,2013-01-30 21:44:00,
2013-01-30 16:49:00,80.7,65.5,29.91,SW,219,17.0,20.0,60,0.00,,SKC,0.00,VWS V14.01,2013-01-30 21:49:00,
2013-01-30 16:54:00,80.6,65.0,29.91,SW,219,18.0,20.0,59,0.00,,SKC,0.00,VWS V14.01,2013-01-30 21:54:00,
2013-01-30 16:59:00,80.2,65.1,29.91,SSW,198,14.0,20.0,60,0.00,,SKC,0.00,VWS V14.01,2013-01-30 21:59:00,
2013-01-30 17:04:00,80.1,65.0,29.91,South,184,11.0,21.0,60,0.00,,SKC,0.00,VWS V14.01,2013-01-30 22:04:00,
2013-01-30 17:09:00,80.2,65.1,29.91,SSW,202,11.0,17.0,60,0.00,,SKC,0.00,VWS V14.01,2013-01-30 22:09:00,
2013-01-30 17:14:00,80.0,64.9,29.92,SSW,204,8.0,18.0,60,0.00,,SKC,0.00,VWS V14.01,2013-01-30 22:14:00,
2013-01-30 17:19:00,80.0,64.4,29.91,SSW,203,7.0,17.0,59,0.00,,SKC,0.00,VWS V14.01,2013-01-30 22:19:00,
2013-01-30 17:24:00,79.6,64.0,29.91,SSW,202,13.0,20.0,59,0.00,,SKC,0.00,VWS V14.01,2013-01-30 22:24:00,
2013-01-30 17:29:00,79.3,64.2,29.91,South,190,9.0,19.0,60,0.00,,SKC,0.00,VWS V14.01,2013-01-30 22:29:00,
2013-01-30 17:34:00,79.0,64.4,29.91,SSW,207,15.0,21.0,61,0.00,,SKC,0.00,VWS V14.01,2013-01-30 22:34:00,
2013-01-30 17:39:00,78.5,64.4,29.92,SW,229,17.0,22.0,62,0.00,,SKC,0.00,VWS V14.01,2013-01-30 22:39:00,
2013-01-30 17:44:00,78.0,64.8,29.91,SSW,202,18.0,22.0,64,0.00,,SKC,0.00,VWS V14.01,2013-01-30 22:44:00,
2013-01-30 17:49:00,77.6,64.5,29.91,South,183,22.0,22.0,64,0.00,,SKC,0.00,VWS V14.01,2013-01-30 22:49:00,
2013-01-30 17:54:00,77.2,64.1,29.91,South,189,11.0,23.0,64,0.00,,SKC,0.00,VWS V14.01,2013-01-30 22:54:00,
2013-01-30 17:59:00,76.8,63.7,29.91,South,190,15.0,24.0,64,0.00,,SKC,0.00,VWS V14.01,2013-01-30 22:59:00,
2013-01-30 18:04:00,76.5,63.4,29.91,SSW,208,12.0,22.0,64,0.00,,SKC,0.00,VWS V14.01,2013-01-30 23:04:00,
2013-01-30 18:09:00,76.3,63.7,29.90,South,186,6.0,20.0,65,0.00,,SKC,0.00,VWS V14.01,2013-01-30 23:09:00,
2013-01-30 18:14:00,76.1,62.6,29.90,SSW,201,15.0,23.0,63,0.00,,SKC,0.00,VWS V14.01,2013-01-30 23:14:00,
2013-01-30 18:19:00,75.9,62.4,29.91,SSW,207,9.0,20.0,63,0.00,,SKC,0.00,VWS V14.01,2013-01-30 23:19:00,
2013-01-30 18:24:00,75.6,62.6,29.91,SSW,202,10.0,20.0,64,0.00,,SKC,0.00,VWS V14.01,2013-01-30 23:24:00,
2013-01-30 18:29:00,75.2,63.1,29.91,SSW,194,11.0,22.0,66,0.00,,SKC,0.00,VWS V14.01,2013-01-30 23:29:00,
2013-01-30 18:34:00,74.9,63.6,29.91,South,190,13.0,18.0,68,0.00,,SKC,0.00,VWS V14.01,2013-01-30 23:34:00,
2013-01-30 18:39:00,74.7,63.9,29.92,SSW,206,15.0,21.0,69,0.00,,SKC,0.00,VWS V14.01,2013-01-30 23:39:00,
2013-01-30 18:44:00,74.4,64.0,29.92,SW,221,8.0,14.0,70,0.00,,SKC,0.00,VWS V14.01,2013-01-30 23:44:00,
2013-01-30 18:49:00,74.2,64.2,29.92,SSW,203,12.0,16.0,71,0.00,,SKC,0.00,VWS V14.01,2013-01-30 23:49:00,
2013-01-30 18:54:00,74.0,64.4,29.92,SW,217,13.0,17.0,72,0.00,,SKC,0.00,VWS V14.01,2013-01-30 23:54:00,
2013-01-30 18:59:00,73.8,64.6,29.92,SSW,208,11.0,14.0,73,0.00,,SKC,0.00,VWS V14.01,2013-01-30 23:59:00,
2013-01-30 19:04:00,73.6,64.4,29.92,SSW,200,10.0,16.0,73,0.00,,SKC,0.00,VWS V14.01,2013-01-31 00:04:00,
2013-01-30 19:09:00,73.5,64.7,29.91,SSW,196,7.0,17.0,74,0.00,,SKC,0.00,VWS V14.01,2013-01-31 00:09:00,
2013-01-30 19:14:00,73.4,65.0,29.91,SSW,205,14.0,16.0,75,0.00,,SKC,0.00,VWS V14.01,2013-01-31 00:14:00,
2013-01-30 19:19:00,73.2,64.8,29.92,SSW,193,9.0,17.0,75,0.00,,SKC,0.00,VWS V14.01,2013-01-31 00:19:00,
2013-01-30 19:24:00,73.1,64.7,29.92,SSW,196,9.0,16.0,75,0.00,,SKC,0.00,VWS V14.01,2013-01-31 00:24:00,
2013-01-30 19:29:00,73.1,65.1,29.92,SSW,211,13.0,15.0,76,0.00,,SKC,0.00,VWS V14.01,2013-01-31 00:29:00,
2013-01-30 19:34:00,73.0,65.0,29.92,South,187,8.0,18.0,76,0.00,,SKC,0.00,VWS V14.01,2013-01-31 00:34:00,
2013-01-30 19:39:00,72.9,65.3,29.92,SW,215,13.0,20.0,77,0.00,,SKC,0.00,VWS V14.01,2013-01-31 00:39:00,
2013-01-30 19:44:00,72.8,65.2,29.92,South,186,11.0,21.0,77,0.00,,SKC,0.00,VWS V14.01,2013-01-31 00:44:00,
2013-01-30 19:49:00,72.7,65.1,29.92,SSW,213,8.0,16.0,77,0.00,,SKC,0.00,VWS V14.01,2013-01-31 00:49:00,
2013-01-30 19:54:00,72.6,65.0,29.91,South,182,9.0,15.0,77,0.00,,SKC,0.00,VWS V14.01,2013-01-31 00:54:00,
2013-01-30 19:59:00,72.5,65.3,29.92,SW,215,10.0,16.0,78,0.00,,SKC,0.00,VWS V14.01,2013-01-31 00:59:00,
2013-01-30 20:04:00,72.4,65.2,29.91,South,187,11.0,19.0,78,0.00,,SKC,0.00,VWS V14.01,2013-01-31 01:04:00,
2013-01-30 20:09:00,72.3,65.1,29.91,SSW,199,9.0,16.0,78,0.00,,SKC,0.00,VWS V14.01,2013-01-31 01:09:00,
2013-01-30 20:14:00,72.2,65.3,29.92,SSW,207,13.0,19.0,79,0.00,,SKC,0.00,VWS V14.01,2013-01-31 01:14:00,
2013-01-30 20:19:00,72.1,65.2,29.92,SSW,202,9.0,16.0,79,0.00,,SKC,0.00,VWS V14.01,2013-01-31 01:19:00,
2013-01-30 20:24:00,72.0,65.1,29.92,SW,215,13.0,19.0,79,0.00,,SKC,0.00,VWS V14.01,2013-01-31 01:24:00,
2013-01-30 20:29:00,71.9,65.4,29.92,South,175,8.0,20.0,80,0.00,,SKC,0.00,VWS V14.01,2013-01-31 01:29:00,
2013-01-30 20:34:00,71.8,65.3,29.92,SSW,192,9.0,15.0,80,0.00,,SKC,0.00,VWS V14.01,2013-01-31 01:34:00,
2013-01-30 20:39:00,71.8,65.3,29.92,SSW,203,15.0,20.0,80,0.00,,SKC,0.00,VWS V14.01,2013-01-31 01:39:00,
2013-01-30 20:44:00,71.8,65.3,29.92,South,182,14.0,19.0,80,0.00,,SKC,0.00,VWS V14.01,2013-01-31 01:44:00,
2013-01-30 20:49:00,71.7,65.2,29.92,SSW,192,20.0,23.0,80,0.00,,SKC,0.00,VWS V14.01,2013-01-31 01:49:00,
2013-01-30 20:54:00,71.6,65.1,29.92,SSE,166,10.0,21.0,80,0.00,,SKC,0.00,VWS V14.01,2013-01-31 01:54:00,
2013-01-30 20:59:00,71.6,65.5,29.92,SSW,207,13.0,22.0,81,0.00,,SKC,0.00,VWS V14.01,2013-01-31 01:59:00,
2013-01-30 21:04:00,71.5,65.4,29.92,SSW,195,7.0,19.0,81,0.00,,SKC,0.00,VWS V14.01,2013-01-31 02:04:00,
2013-01-30 21:09:00,71.5,65.4,29.92,SSW,200,8.0,21.0,81,0.00,,SKC,0.00,VWS V14.01,2013-01-31 02:09:00,
2013-01-30 21:14:00,71.4,65.6,29.92,SSW,208,9.0,20.0,82,0.00,,SKC,0.00,VWS V14.01,2013-01-31 02:14:00,
2013-01-30 21:19:00,71.3,65.5,29.92,SW,215,20.0,20.0,82,0.00,,SKC,0.00,VWS V14.01,2013-01-31 02:19:00,
2013-01-30 21:24:00,71.2,65.4,29.92,SSE,165,6.0,20.0,82,0.00,,SKC,0.00,VWS V14.01,2013-01-31 02:24:00,
2013-01-30 21:29:00,71.2,65.4,29.92,SSW,206,14.0,18.0,82,0.00,,SKC,0.00,VWS V14.01,2013-01-31 02:29:00,
2013-01-30 21:34:00,71.1,65.7,29.92,SSW,192,7.0,18.0,83,0.00,,SKC,0.00,VWS V14.01,2013-01-31 02:34:00,
2013-01-30 21:39:00,71.0,65.6,29.92,South,176,10.0,18.0,83,0.00,,SKC,0.00,VWS V14.01,2013-01-31 02:39:00,
2013-01-30 21:44:00,71.0,65.6,29.92,South,188,11.0,21.0,83,0.00,,SKC,0.00,VWS V14.01,2013-01-31 02:44:00,
2013-01-30 21:49:00,71.0,65.6,29.92,SSW,207,8.0,17.0,83,0.00,,SKC,0.00,VWS V14.01,2013-01-31 02:49:00,
2013-01-30 21:54:00,70.9,65.5,29.92,SSW,199,11.0,15.0,83,0.00,,SKC,0.00,VWS V14.01,2013-01-31 02:54:00,
2013-01-30 21:59:00,70.9,65.5,29.92,SSW,198,15.0,17.0,83,0.00,,SKC,0.00,VWS V14.01,2013-01-31 02:59:00,
2013-01-30 22:04:00,70.8,65.4,29.92,SSW,206,7.0,16.0,83,0.00,,SKC,0.00,VWS V14.01,2013-01-31 03:04:00,
2013-01-30 22:09:00,70.7,65.3,29.92,South,182,10.0,14.0,83,0.00,,SKC,0.00,VWS V14.01,2013-01-31 03:09:00,
2013-01-30 22:14:00,70.6,65.5,29.91,SSE,165,6.0,13.0,84,0.00,,SKC,0.00,VWS V14.01,2013-01-31 03:14:00,
2013-01-30 22:19:00,70.6,65.2,29.92,SSE,165,6.0,15.0,83,0.00,,SKC,0.00,VWS V14.01,2013-01-31 03:19:00,
2013-01-30 22:24:00,70.5,65.4,29.92,South,186,9.0,15.0,84,0.00,,SKC,0.00,VWS V14.01,2013-01-31 03:24:00,
2013-01-30 22:29:00,70.5,65.4,29.92,SW,220,9.0,15.0,84,0.00,,SKC,0.00,VWS V14.01,2013-01-31 03:29:00,
2013-01-30 22:34:00,70.5,65.4,29.92,SSW,202,7.0,16.0,84,0.00,,SKC,0.00,VWS V14.01,2013-01-31 03:34:00,
2013-01-30 22:39:00,70.5,65.4,29.91,South,188,7.0,18.0,84,0.00,,SKC,0.00,VWS V14.01,2013-01-31 03:39:00,
2013-01-30 22:44:00,70.4,65.3,29.91,South,178,9.0,15.0,84,0.00,,SKC,0.00,VWS V14.01,2013-01-31 03:44:00,
2013-01-30 22:49:00,70.4,65.3,29.91,SSW,197,13.0,17.0,84,0.00,,SKC,0.00,VWS V14.01,2013-01-31 03:49:00,
2013-01-30 22:54:00,70.4,65.7,29.91,SSW,195,15.0,17.0,85,0.00,,SKC,0.00,VWS V14.01,2013-01-31 03:54:00,
2013-01-30 22:59:00,70.4,65.7,29.91,SE,143,9.0,14.0,85,0.00,,SKC,0.00,VWS V14.01,2013-01-31 03:59:00,
2013-01-30 23:04:00,70.3,65.6,29.91,South,184,14.0,19.0,85,0.00,,SKC,0.00,VWS V14.01,2013-01-31 04:04:00,
2013-01-30 23:09:00,70.3,65.9,29.91,SSW,198,7.0,17.0,86,0.00,,SKC,0.00,VWS V14.01,2013-01-31 04:09:00,
2013-01-30 23:14:00,70.3,65.9,29.91,South,190,13.0,20.0,86,0.00,,SKC,0.00,VWS V14.01,2013-01-31 04:14:00,
2013-01-30 23:19:00,70.2,65.8,29.91,SSE,165,6.0,16.0,86,0.00,,SKC,0.00,VWS V14.01,2013-01-31 04:19:00,
2013-01-30 23:24:00,70.1,65.7,29.91,South,190,17.0,17.0,86,0.00,,SKC,0.00,VWS V14.01,2013-01-31 04:24:00,
2013-01-30 23:29:00,70.1,65.7,29.91,SSW,201,9.0,15.0,86,0.00,,SKC,0.00,VWS V14.01,2013-01-31 04:29:00,
2013-01-30 23:34:00,70.0,65.6,29.91,SSW,194,8.0,14.0,86,0.00,,SKC,0.00,VWS V14.01,2013-01-31 04:34:00,
2013-01-30 23:39:00,70.0,65.6,29.91,SSW,196,12.0,18.0,86,0.00,,SKC,0.00,VWS V14.01,2013-01-31 04:39:00,
2013-01-30 23:44:00,69.9,65.9,29.91,SSW,200,19.0,19.0,87,0.00,,SKC,0.00,VWS V14.01,2013-01-31 04:44:00,
2013-01-30 23:49:00,69.9,65.9,29.92,SSW,210,12.0,19.0,87,0.00,,SKC,0.00,VWS V14.01,2013-01-31 04:49:00,
2013-01-30 23:54:00,69.8,65.8,29.92,SSW,205,11.0,19.0,87,0.00,,SKC,0.00,VWS V14.01,2013-01-31 04:54:00,
2013-01-30 23:59:00,69.7,65.7,29.92,SSW,198,8.0,14.0,87,0.00,,SKC,0.00,VWS V14.01,2013-01-31 04:59:00,